COSMOS 2535 DEB, 44632

Orbit data source: Space-Track

COSMOS 2535 DEB, 44632 is space debris in SSO originally from a launch on Wed, 10 Jul 2019 UTC launched from the Plesetsk Missile And Space Complex (PKMTR). Debris objects in space refer to the collection of defunct objects orbiting the Earth. Examples of debris include non-operational satellites, rocket bodies, and fragments generated from explosions, collisions, or faulty payload assembly.

Loading next visibility...
Identifier
44632, 2019-039J
Orbit
SSO
Country
Flag of CISCIS
Related business
Manufacturer
Unknown
Mission
Spacecraft
Bus & Motor
Unknown
Mass
Unknown
Launch date (UTC)
2019-07-10 (6 years ago)
Launch vehicle
Unknown
Launch site
Plesetsk Missile And Space Complex (PKMTR)
Object type
Payload
Rocket body
Debris
Shape & HBR
Unknown shape, 0.1 m
Radar Cross Section
Small (<0.1 m²)

Expand to show TLE details & history
Last TLE update: 1 day ago

TLE from 1 day ago
0 COSMOS 2535 DEB
1 44632U 19039J   25286.06490888  .00014521  00000-0  89277-3 0  9996
2 44632  97.5506 323.5353 0013485 148.4247 211.7794 15.10075484327646
Epoch: 2025-10-13T01:33Z
TLE epoch observation values (Epoch: 2025-10-13T01:33:28.127Z)
Latitude
-0.00002°
Longitude
-81.70494°
Altitude
546.973 km
Speed
7.584 km/s
True Right ascension
21h 34m 08s
True Declination
0° 00' 00"
Sunlit
Object was in full shadow at epoch
Visualization orbit readout
Latitude
Unknown
Longitude
Unknown
Altitude
Unknown
Speed
Unknown
Apparent Right ascension
Unknown
Apparent Declination
Unknown
Sunlit
N/A
Visualization observer readout
Local Sidereal Time
07:45:00
Azimuth
Unknown
Elevation
Unknown
Doppler factor
Unknown
Orbital elements
Apogee altitude
542.274 km
Perigee altitude
523.635 km
Semi-major axis
6,911.092 km
Eccentricity
0.00135
Inclination
97.5506°
RAAN
323.5353°
Arg. of periapsis
148.4247°
True anomaly
211.69813°
Mean anomaly
211.7794°
Eccentric anomaly
211.73876°
Mean motion
3.77766 °/min
Orbital period
95.3 mins
BSTAR
0.00089277
Loading maneuver chart data...
Computing Atmospheric mass density...
Loading historical data...
Loading historical data...
Loading historical data...
Loading historical data...
Loading historical data...
Loading historical data...
Loading historical data...

Documentation

Showing up to 5 results
|